Retour au catalogue

CBERS 2

ActifScienceSSO
NORAD 28057·PAYLOAD·🇧🇷 Brazil🇨🇳 China

Lancé Oct 21, 2003 depuis Taiyuan Satellite Launch Center

Loading…

Prochains Passages (prochaines 24 heures)

TLE

FraisSource: Space-Track

Époque: Sep 14, 2026, 21:18 UTC

1 28057U 03049A   26257.88818029  .00000144  00000-0  64385-4 0  9993
2 28057  98.7670 231.3141 0000449 122.8425 237.2804 14.36775031200068

Suivez CBERS 2 en temps réel avec AllMySat

Download on the App Store